Regional Weather Roundup
Issued by NWS

Home | Current Version | Previous Version | Text Only | Print | Product List | Glossary On
Versions: 1 2 3 4 5 6 7 8 9 10 11 12 13 14 15 16 17 18 19 20 21 22 23 24 25 26 27 28 29 30 31 32 33 34 35 36 37 38 39 40 41 42 43 44 45 46 47 48 49 50
000
ASUS44 KFWD 251203
RWRTX
NORTH TEXAS HOURLY WEATHER ROUNDUP
NATIONAL WEATHER SERVICE FORT WORTH TX
700 AM CDT SAT OCT 25 2014

NOTE: "FAIR" INDICATES FEW OR NO CLOUDS BELOW 12,000 FEET WITH NO
SIGNIFICANT WEATHER AND/OR OBSTRUCTIONS TO VISIBILITY.

TXZ118-119-251300-
DALLAS/FORT WORTH METROPLEX

CITY           SKY/WX    TMP DP  RH WIND       PRES   REMARKS
DFW AIRPORT    CLEAR     66  58  75 S9        30.11R
6HR MIN TEMP:  65; 6HR MAX TEMP:  69;

DALLAS LOVE    CLEAR     66  57  72 SE8       30.12R
6HR MIN TEMP:  65; 6HR MAX TEMP:  71;

FTW MEACHAM    CLEAR     65  58  78 S6        30.10R
6HR MIN TEMP:  65; 6HR MAX TEMP:  71;

DAL-EXECUTIVE  CLEAR     65  57  75 S6        30.11S
6HR MIN TEMP:  65; 6HR MAX TEMP:  70;

FTW-ALLIANCE   CLEAR     62  58  86 S3        30.10R
6HR MIN TEMP:  62; 6HR MAX TEMP:  69;

FTW-NAS-JRB    CLEAR     69  57  65 SE5       30.14S
6HR MIN TEMP:  69; 6HR MAX TEMP:  74;

FTW-SPINKS     CLEAR     64  57  77 S6        30.12S
ARLINGTON      CLEAR     64  57  78 S6        30.11S
6HR MIN TEMP:  64; 6HR MAX TEMP:  68;

GRAND PRAIRIE  CLEAR     64  59  82 MISG        N/A
MESQUITE       CLEAR     59  57  94 SE5       30.13R
LANCASTER      CLEAR     58  55  88 CALM      30.13S
6HR MIN TEMP:  58; 6HR MAX TEMP:  65;

$$

TXZ091>094-102>105-117-120-121-131>134-251300-
NORTH CENTRAL TEXAS

CITY           SKY/WX    TMP DP  RH WIND       PRES   REMARKS
SHRMAN/DENISON CLEAR     64  60  86 S7        30.11S
6HR MIN TEMP:  64; 6HR MAX TEMP:  68;

GAINESVILLE    CLEAR     60  58  92 S6        30.12S
6HR MIN TEMP:  60; 6HR MAX TEMP:  65;

BOWIE          CLEAR     59  58  98 SE3       30.10S FOG
6HR MIN TEMP:  58; 6HR MAX TEMP:  65;

BRIDGEPORT     CLEAR     56  56 100 CALM      30.12R
6HR MIN TEMP:  56; 6HR MAX TEMP:  71;

DECATUR        CLEAR     65  58  79 S6        30.11R
6HR MIN TEMP:  64; 6HR MAX TEMP:  69;

DENTON         CLEAR     61  58  90 SE6       30.10S
6HR MIN TEMP:  61; 6HR MAX TEMP:  68;

MCKINNEY       CLEAR     60  57  89 S6        30.12R
6HR MIN TEMP:  60; 6HR MAX TEMP:  67;

GREENVILLE     CLEAR     59  55  88 CALM      30.14R
ROCKWALL       CLEAR     62  58  88 S8        30.12R
6HR MIN TEMP:  62; 6HR MAX TEMP:  66;

TERRELL        CLEAR     61  58  90 S3        30.14R
6HR MIN TEMP:  60; 6HR MAX TEMP:  65;

WAXAHACHIE     CLEAR     60  57  90 SE5       30.14S
6HR MIN TEMP:  60; 6HR MAX TEMP:  65;

CLEBURNE       CLEAR     61  61 100 S6        30.13S
GRANBURY       CLEAR     64  58  83 CALM      30.12S
6HR MIN TEMP:  64; 6HR MAX TEMP:  71;

$$

TXZ083>090-098>101-113>116-127>130-139>142-154-155-251300-
WESTERN NORTH TEXAS

CITY           SKY/WX    TMP DP  RH WIND       PRES   REMARKS
WICHITA FALLS  CLEAR     59  56  89 SE5       30.08R
6HR MIN TEMP:  58; 6HR MAX TEMP:  66;

WF-KICKAPOO    CLEAR     60  56  87 S5        30.10R
6HR MIN TEMP:  59; 6HR MAX TEMP:  68;

VERNON         CLEAR     59  54  82 SW6       30.09R
ABILENE        CLEAR     66  57  72 CALM      30.13S
6HR MIN TEMP:  65; 6HR MAX TEMP:  71;

ABILENE-DYESS  CLEAR     66  57  71 S3        30.12R HAZE
6HR MIN TEMP:  64; 6HR MAX TEMP:  70;

BRECKENRIDGE   CLEAR     64  57  79 S8        30.11S
6HR MIN TEMP:  64; 6HR MAX TEMP:  73;

MINERAL WELLS  CLEAR     62  58  86 SE7       30.10R FOG
6HR MIN TEMP:  61; 6HR MAX TEMP:  65;

STEPHENVILLE   CLEAR     61  57  85 CALM      30.15R
6HR MIN TEMP:  61; 6HR MAX TEMP:  65;

COMANCHE       CLEAR     67  59  75 SW10      30.12S
6HR MIN TEMP:  66; 6HR MAX TEMP:  70;

COLEMAN        CLEAR     59  56  89 SW5       30.15S
6HR MIN TEMP:  58; 6HR MAX TEMP:  67;

BRADY          CLEAR     61  55  82 SW5       30.15S
$$

TXZ143>147-156>162-174-175-251300-
CENTRAL TEXAS

CITY           SKY/WX    TMP DP  RH WIND       PRES   REMARKS
WACO           CLEAR     60  57  89 SE5       30.13S
6HR MIN TEMP:  60; 6HR MAX TEMP:  69;

WACO-TSTC      CLEAR     59  57  94 S5        30.14
WACO-MCGREGOR  CLEAR     61  52  72 S3        30.15R
6HR MIN TEMP:  61; 6HR MAX TEMP:  66;

HILLSBORO      CLEAR     63  56  78 S6        30.13S
6HR MIN TEMP:  62; 6HR MAX TEMP:  67;

CORSICANA      CLEAR     61  56  83 S7        30.15S
6HR MIN TEMP:  61; 6HR MAX TEMP:  66;

MEXIA          CLEAR     58  56  92 CALM      30.14S
6HR MIN TEMP:  58; 6HR MAX TEMP:  62;

HEARNE         CLEAR     59  56  91 CALM      30.16S
6HR MIN TEMP:  57; 6HR MAX TEMP:  62;

CAMERON        CLEAR     60  57  90 CALM      30.14S
6HR MIN TEMP:  60; 6HR MAX TEMP:  67;

TEMPLE         CLEAR     59  52  77 SE3       30.13R
6HR MIN TEMP:  59; 6HR MAX TEMP:  64;

KILLEEN        CLEAR     64  57  77 S6        30.13S
6HR MIN TEMP:  61; 6HR MAX TEMP:  67;

KILLEEN-SKYLRK CLEAR     61  52  72 S5        30.11S
6HR MIN TEMP:  61; 6HR MAX TEMP:  68;

FORT HOOD      CLEAR     63  58  83 SE3       30.14R
6HR MIN TEMP:  63; 6HR MAX TEMP:  69;

GATESVILLE     CLEAR     61  55  82 CALM      30.15S
HAMILTON       CLEAR     62  56  83 S7        30.14S
6HR MIN TEMP:  62; 6HR MAX TEMP:  67;

LAMPASAS       CLEAR     62  58  86 SW3       30.13S
6HR MIN TEMP:  60; 6HR MAX TEMP:  67;

$$

TXZ095>097-106>112-122>126-135>138-148>153-164>167-251300-
EAST TEXAS

CITY           SKY/WX    TMP DP  RH WIND       PRES   REMARKS
PARIS          CLEAR     57  52  82 S6        30.13S
6HR MIN TEMP:  57; 6HR MAX TEMP:  63;

SULPHUR SPRNGS CLEAR     62  58  87 SW6       30.15S
6HR MIN TEMP:  62; 6HR MAX TEMP:  67;

MOUNT PLEASANT CLEAR     56  56  99 CALM      30.15S
6HR MIN TEMP:  56; 6HR MAX TEMP:  60;

MINEOLA        CLEAR     57  57 100 CALM      30.15R
TYLER          CLEAR     60  56  86 S6        30.14R
6HR MIN TEMP:  60; 6HR MAX TEMP:  62;

LONGVIEW       CLEAR     59  55  87 S3        30.14R
6HR MIN TEMP:  57; 6HR MAX TEMP:  61;

MARSHALL       CLEAR     56  54  92 CALM      30.16S
6HR MIN TEMP:  56; 6HR MAX TEMP:  58;

ATHENS         CLEAR     55  55 100 CALM      30.14S
PALESTINE      CLEAR     59  56  91 CALM      30.17R
JACKSONVILLE   CLEAR     62  56  79 S6        30.17R
HENDERSON      CLEAR     54  54 100 CALM      30.16S
6HR MIN TEMP:  53; 6HR MAX TEMP:  57;

NACOGDOCHES    CLEAR     50  46  87 CALM      30.16R
6HR MIN TEMP:  50; 6HR MAX TEMP:  54;

LUFKIN         FAIR      55  51  86 CALM      30.15R FOG
6HR MIN TEMP:  54; 6HR MAX TEMP:  59;

$$

SUPPLEMENTAL OBSERVATIONS (CENTRAL)

CITY           SKY/WX    TMP DP  RH WIND       PRES   REMARKS
$$

SUPPLEMENTAL OBSERVATIONS (WEST)

CITY           SKY/WX    TMP DP  RH WIND       PRES   REMARKS
$$

SUPPLEMENTAL OBSERVATIONS (EAST)

CITY           SKY/WX    TMP DP  RH WIND       PRES   REMARKS
$$

SUPPLEMENTAL OBSERVATIONS ARE A COLLECTION OF AUTOMATED INSTRUMENTS
THAT ARE MAINTAINED BY A VARIETY OF FEDERAL AND STATE AGENCIES.
CERTAIN ELEMENTS...SUCH AS HUMIDITY VALUES AND SUSTAINED WIND
SPEEDS...MAY BE APPROXIMATED.




USA.gov is the U.S. government's official web portal to all federal, state and local government web resources and services.